FW3100 Weather Reports


time (UTC)temp
F
wind
direction
speed
knots
gust
knots
rain 1hr
in
rain 24hr
in
rain mn
in
humidity
%
barometer
mb
20260510193001 89 253 1.7 7.8 0.00 0.00 0.00 70 1014.7
20260510191601 88 99 2.6 7.8 0.00 0.00 0.00 71 1014.8
20260510190100 87 53 2.6 8.7 0.00 0.00 0.00 73 1014.7
20260510184557 88 219 1.7 7.0 0.00 0.00 0.00 72 1014.7
20260510183057 88 350 1.7 7.0 0.00 0.00 0.00 72 1015.0
20260510181559 88 77 1.7 7.8 0.00 0.00 0.00 69 1014.9
20260510174553 89 117 2.6 7.8 0.00 0.00 0.00 69 1015.1
20260510173053 90 219 1.7 6.1 0.00 0.00 0.00 69 1015.2
20260510171550 90 203 2.6 7.8 0.00 0.00 0.00 68 1015.4
20260510170053 91 53 2.6 5.2 0.00 0.00 0.00 65 1015.4
20260510164554 90 27 2.6 7.8 0.00 0.00 0.00 66 1015.5
20260510163045 90 47 1.7 7.0 0.00 0.00 0.00 65 1015.5
20260510161512 90 248 1.7 7.0 0.00 0.00 0.00 64 1015.5
20260510160008 89 181 1.7 4.3 0.00 0.00 0.00 66 1015.6
20260510154505 88 266 0.0 3.5 0.00 0.00 0.00 69 1015.6
20260510153004 89 99 1.7 6.1 0.00 0.00 0.00 66 1015.5
20260510151559 87 303 1.7 7.0 0.00 0.00 0.00 70 1015.4
20260510150058 86 108 0.9 3.5 0.00 0.00 0.00 69 1015.3
20260510144553 86 246 1.7 4.3 0.00 0.00 0.00 73 1015.4
20260510143053 85 233 0.9 10.4 0.00 0.00 0.00 77 1015.5
20260510141546 83 238 1.7 13.9 0.00 0.00 0.00 76 1015.3
20260510140045 83 96 2.6 10.4 0.00 0.00 0.00 77 1015.0
20260510133019 81 108 2.6 7.0 0.00 0.00 0.00 80 1015.2
20260510131515 80 97 0.9 10.4 0.00 0.00 0.00 82 1014.9
20260510130015 79 85 1.7 7.8 0.00 0.00 0.00 83 1014.9
20260510124511 78 95 2.6 7.0 0.00 0.00 0.00 84 1014.9
20260510123003 77 95 2.6 6.1 0.00 0.00 0.00 86 1014.8
20260510121600 76 86 1.7 5.2 0.00 0.00 0.00 88 1014.6
20260510120054 74 101 0.9 4.3 0.00 0.00 0.00 91 1014.3
20260510114548 73 83 1.7 7.0 0.00 0.00 0.00 91 1014.0
20260510113050 73 98 3.5 5.2 0.00 0.00 0.00 92 1013.9
20260510111559 0 0.0 0.0 0.00 0.00 0.00 1013.6
20260510110032 0 0.0 0.0 0.00 0.00 0.00 1013.4
20260510104538 0 0.0 0.0 0.00 0.00 0.00 1012.9
20260510103032 0 0.0 0.0 0.00 0.00 0.00 1013.0
20260510101520 0 0.0 0.0 0.00 0.00 0.00 1012.8
20260510100012 0 0.0 0.0 0.00 0.00 0.00 1012.7
20260510094508 0 0.0 0.0 0.00 0.00 0.00 1012.5
20260510093003 0 0.0 0.0 0.00 0.00 0.00 1012.4
20260510091605 0 0.0 0.0 0.00 0.00 0.00 1012.3
20260510084558 73 95 1.7 3.5 0.00 0.00 0.00 91 1012.1
20260510083052 73 99 1.7 4.3 0.00 0.00 0.00 91 1012.0
20260510081551 73 96 1.7 3.5 0.00 0.00 0.00 91 1011.8
20260510080057 73 96 1.7 4.3 0.00 0.00 0.00 91 1011.7
20260510074548 73 99 2.6 5.2 0.00 0.00 0.00 91 1011.8
20260510073047 73 95 3.5 6.1 0.00 0.00 0.00 92 1011.9
20260510071547 73 101 2.6 5.2 0.00 0.00 0.00 92 1012.0
20260510070048 73 95 1.7 5.2 0.00 0.00 0.00 92 1012.1
20260510064603 73 110 3.5 6.1 0.00 0.00 0.00 92 1012.4
20260510063047 72 94 0.9 3.5 0.00 0.00 0.00 91 1012.5
20260510061549 72 98 1.7 3.5 0.00 0.00 0.00 91 1012.6
20260510060042 73 98 0.0 2.6 0.00 0.00 0.00 90 1013.0
20260510054540 73 92 0.9 2.6 0.00 0.00 0.00 89 1013.2
20260510053039 73 103 0.0 1.7 0.00 0.00 0.00 89 1013.4
20260510051540 73 79 0.0 0.9 0.00 0.00 0.00 88 1013.6
20260510050039 73 79 0.0 0.9 0.00 0.00 0.00 88 1013.6
20260510044537 74 81 0.0 0.9 0.00 0.00 0.00 87 1013.7
20260510043036 74 81 0.0 0.9 0.00 0.00 0.00 86 1013.8
20260510041538 75 79 0.0 0.9 0.00 0.00 0.00 86 1014.0
20260510040033 75 79 0.0 0.0 0.00 0.00 0.00 85 1014.0
20260510034532 75 79 0.0 0.0 0.00 0.00 0.00 86 1014.1
20260510033030 75 79 0.0 0.0 0.00 0.00 0.00 85 1013.9
20260510031534 75 79 0.0 0.0 0.00 0.00 0.00 85 1013.8
20260510030025 75 79 0.0 0.9 0.00 0.00 0.00 85 1013.6
20260510024531 75 82 0.9 3.5 0.00 0.00 0.00 85 1013.6
20260510023023 75 70 0.0 0.9 0.00 0.00 0.00 85 1013.6
20260510021521 75 71 0.0 0.9 0.00 0.00 0.00 84 1013.3
20260510020017 75 77 0.0 1.7 0.00 0.00 0.00 83 1012.9
20260510014517 76 74 0.0 1.7 0.00 0.00 0.00 83 1012.9
20260510013020 76 9 0.0 0.0 0.00 0.00 0.00 82 1012.9
20260510011520 77 342 0.0 0.0 0.00 0.00 0.00 82 1012.6
20260510010012 77 302 0.0 0.0 0.00 0.00 0.00 83 1012.5
20260510004512 78 326 0.0 0.0 0.00 0.00 0.00 83 1012.2
20260510003011 79 326 0.0 0.0 0.00 0.00 0.00 82 1012.2
20260510001511 79 326 0.0 0.0 0.00 0.00 0.00 81 1012.2
20260510000010 80 326 0.0 0.0 0.00 0.00 0.00 81 1012.1
20260509234557 80 326 0.0 0.9 0.00 0.00 0.00 79 1011.8
20260509233048 80 333 0.0 2.6 0.00 0.00 0.00 78 1011.7
20260509231555 81 246 0.9 3.5 0.00 0.00 0.00 79 1011.7
20260509230036 81 290 0.9 4.3 0.00 0.00 0.00 78 1011.7
20260509224535 82 300 1.7 4.3 0.00 0.00 0.00 76 1011.6
20260509223037 82 227 0.9 4.3 0.00 0.00 0.00 75 1011.7
20260509223005 82 342 0.0 4.3 0.00 0.00 0.00 75 1011.7
20260509221533 83 58 1.7 6.1 0.00 0.00 0.00 74 1011.5
20260509220034 83 273 1.7 7.8 0.00 0.00 0.00 73 1011.4
20260509214533 84 276 0.0 6.1 0.00 0.00 0.00 71 1011.2
20260509213032 86 53 0.9 7.0 0.00 0.00 0.00 68 1011.0
20260509211528 87 293 0.9 7.8 0.00 0.00 0.00 66 1010.8
20260509210029 87 31 2.6 8.7 0.00 0.00 0.00 62 1010.7
20260509204530 89 50 2.6 7.8 0.00 0.00 0.00 59 1010.7
20260509203034 89 251 1.7 6.1 0.00 0.00 0.00 61 1010.6
20260509201523 89 240 2.6 6.1 0.00 0.00 0.00 59 1010.6
20260509200021 89 262 1.7 5.2 0.00 0.00 0.00 61 1010.7
20260509194520 89 218 2.6 7.8 0.00 0.00 0.00 61 1010.9